Regional Weather Roundup
Issued by NWS Newport/Morehead, NC

Current Version | Previous Version | Graphics & Text | Print | Product List | Glossary On
Versions: 1 2 3 4 5 6 7 8 9 10 11 12 13 14 15 16 17 18 19 20 21 22 23 24 25 26 27 28 29 30 31 32 33 34 35 36 37 38 39 40 41 42 43 44 45 46 47 48 49 50
000 ASUS42 KMHX 031524 RWRMHX WEATHER ROUNDUP FOR EASTERN NORTH CAROLINA NATIONAL WEATHER SERVICE NEWPORT/MOREHEAD CITY NC 1000 AM EST SAT DEC 03 2016 NOTE: "FAIR" INDICATES FEW OR NO CLOUDS BELOW 12,000 FEET WITH NO SIGNIFICANT WEATHER AND/OR OBSTRUCTIONS TO VISIBILITY NCZ015>017-031-032-045>047-102-103-031600- NORTH COAST CITY SKY/WX TMP DP RH WIND PRES REMARKS EDENTON SUNNY 49 32 52 NW10 30.27R ELIZABETH CITY SUNNY 46 31 55 NW10 30.24S KITTY HAWK SUNNY 47 34 59 NW10G17 30.21S MANTEO SUNNY 47 32 56 N7G18 30.23S $$ NCZ045>047-081-094-103-104-031600- CENTRAL COAST CITY SKY/WX TMP DP RH WIND PRES REMARKS FRISCO SUNNY 49 33 54 VRB6 30.24R $$ NCZ095-097-098-100-101-031600- SOUTHERN COAST CITY SKY/WX TMP DP RH WIND PRES REMARKS BEAUFORT SUNNY 49 31 49 N14 30.26R CEDAR ISLAND NOT AVBL JACKSONVILLE SUNNY 47 30 51 N13 30.28S PINEY ISLAND SUNNY N/A N/A N/A N15 30.26R WILMINGTON SUNNY 47 30 51 N12 30.30R $$ NCZ011>013-027>030-043-044-078>080-089-090>093-098-031600- COASTAL PLAIN CITY SKY/WX TMP DP RH WIND PRES REMARKS AHOSKIE SUNNY 45 29 53 N8 30.28S CLINTON SUNNY 47 31 53 N9 30.31R ELIZABETHTOWN SUNNY 46 32 57 NE8 30.31R GOLDSBORO SUNNY 47 28 47 N10 30.28R GREENVILLE SUNNY 46 32 57 N7 30.29R HAVELOCK SUNNY 48 31 51 N14 30.27S KENANSVILLE SUNNY 46 28 49 N10 30.29S KINSTON SUNNY 46 30 53 N10 30.29S NEW BERN SUNNY 46 30 53 N13 30.28R RICHLANDS SUNNY 46 31 55 N8 30.29R ROCKY MOUNT SUNNY 46 29 51 NW13 30.30R WASHINGTON SUNNY 47 31 55 NW7 30.29R WHITEVILLE SUNNY 47 31 55 NE7 30.30R $$ AMZ130-135-150-152-154-156-158-170-250-252-270-ANZ085-086-088-633-658-670-031600- MARINE OBSERVATIONS STATION/POSITION TIME TEMP WIND PRES WAVE SWELL AIR SEA DIR/SP/G HT/PER HT/PER (UTC) (F) (DEG/KT/KT) (MB) (FT/S) (FT/S) CHESAPEAKE LIGHT NOT AVBL 64 E VA BEACH 1450 50 60 330/ 21/ 25 1021.2 9/ 7 DUCK 1500 45 56 320/ 18/ 21 1022.8 2 E DUCK NOT AVBL OREGON INLET 1500 47 56 310/ 13/ 18 1023.2 13E OREGON INLT 1500 62 N/A 7/ 7 5/ 7 HATTERAS CG 1500 47 58 340/ 17/ 20 1023.3 DIAMOND BUOY 1450 66 74 350/ 19/ 25 1023.1 5/ 6 2/15 CAPE LOOKOUT 1500 46 340/ 12/ 15 1024.2 BEAUFORT LAB 1500 47 56 360/ 12/ 16 1023.4 30 SE NEW RVR IN 1508 50 71 20/ 14/ 25 1024.8 30 SE NEW RVR IN NOT AVBL 27 SE WRIGHTSVLE 1508 49 69 30/ 16/ 23 1024.8 5 SE WRIGHTSVLE 1508 46 63 20/ 19/ 31 1025.6 225 S CAPE HAT 1450 65 74 350/ 14/ 17 1020.9 5/ 6 2/ 9 41 SE CHARLESTON 1450 59 75 30/ 16/ 21 1023.9 4/ 5 2/ 9 $$

USA.gov is the U.S. government's official web portal to all federal, state and local government web resources and services.